User: anonymous   Login
Location: Unspecified
(0.0000°N, 0.0000°E)
Time: 22:43:34
(UTC+00:00)
Language:

RAAVANA1 - Orbit

View from above orbital plane
View from above orbital plane
View from above satellite
View from above satellite

Ground track
Ground track

The orbit data is extracted from the following two-line orbital elements,

1 44330U 98067QF  21206.95077907  .00090160  00000-0  43583-3 0  9991
2 44330  51.6295  86.4569 0003247 104.0918 256.0445 15.81788497120211
Epoch (UTC): 25 July 2021 22:49:07
Eccentricity: 0.0003247
inclination: 51.6295°
perigee height: 323 km
apogee height: 327 km
right ascension of ascending node: 86.4569°
argument of perigee: 104.0918°
revolutions per day: 15.81788497
mean anomaly at epoch: 256.0445°
orbit number at epoch: 12021

The dashed part of the orbit path shows where the satellite is in the earth's shadow,  

DLR